Fort Knox, KY

6:16 PM EDT on April 22, 2018 (GMT -0400)
Godman Army Air Field

Weather History for KFTK - March, 2013

Change the Weather History Date:

Sunday, March 24, 2013

  Actual Average Record
Temperature  
Mean Temperature 40 °F -  
Max Temperature 45 °F 57 °F 80 °F (2007)
Min Temperature 34 °F 37 °F 24 °F (2014)
Degree Days  
Heating Degree Days 25    
Moisture  
Dew Point 34 °F    
Average Humidity 86    
Maximum Humidity 100    
Minimum Humidity 43    
Precipitation  
Precipitation 0.60 in - - ()
Sea Level Pressure  
Sea Level Pressure 29.55 in    
Wind  
Wind Speed 10 mph (NE)    
Max Wind Speed 18 mph    
Max Gust Speed 25 mph    
Visibility 6 miles    
Events Fog , Rain , Snow , Thunderstorm    
Averages and records for this station are not official NWS values.
T = Trace of Precipitation, MM = Missing Value Source: NWS Daily Summary

Daily Weather History Graph

Daily Weather History Graph

Search for Another Location

Airport or City:

Astronomy

Mar. 24, 2013 Rise Set
Actual Time 7:40 AM EDT 7:59 PM EDT
Civil Twilight 7:14 AM EDT 8:26 PM EDT
Nautical Twilight 6:43 AM EDT 8:56 PM EDT
Astronomical Twilight 6:12 AM EDT 9:28 PM EDT
Moon 5:29 PM EDT (3/24) 5:48 AM EDT (3/24)
Length of Visible Light 13h 11m
Length of Day
12h 18m
Waxing Gibbous, 91% of the Moon is Illuminated
Mar 24
Waxing Gibbous
Mar 27
Full
Apr 3
Last Quarter
Apr 10
New
Apr 18
First Quarter

Hourly Weather History & Observations

Time (EDT) Temp. Windchill Dew Point Humidity Pressure Visibility Wind Dir Wind Speed Gust Speed Precip Events Conditions
12:55 AM 45.9 °F 40.4 °F 24.3 °F 43% 29.78 in 10.0 mi ENE 11.5 mph - N/A   Clear
1:55 AM 45.3 °F 40.1 °F 24.1 °F 43% 29.80 in 10.0 mi East 10.4 mph - N/A   Mostly Cloudy
2:19 AM 44.6 °F 39.2 °F 24.8 °F 46% 29.79 in 10.0 mi ENE 10.4 mph - N/A   Mostly Cloudy
2:55 AM 43.0 °F 37.7 °F 28.8 °F 57% 29.78 in 10.0 mi NE 9.2 mph - 0.00 in   Overcast
3:19 AM 42.8 °F 38.0 °F 28.4 °F 57% 29.77 in 10.0 mi NE 8.1 mph - N/A   Overcast
3:22 AM 42.8 °F 37.5 °F 28.4 °F 57% 29.76 in 10.0 mi NE 9.2 mph - N/A   Overcast
3:55 AM 41.0 °F 35.2 °F 30.7 °F 67% 29.74 in 10.0 mi NE 9.2 mph - 0.00 in Rain Light Rain
4:55 AM 38.5 °F 31.6 °F 32.7 °F 80% 29.70 in 7.0 mi ENE 10.4 mph - 0.05 in Rain Light Rain
5:55 AM 37.4 °F 29.3 °F 33.6 °F 86% 29.66 in 9.0 mi ENE 12.7 mph - 0.05 in Rain Light Rain
6:12 AM 37.4 °F 31.4 °F 33.8 °F 87% 29.67 in 8.0 mi NE 8.1 mph - N/A Rain Light Rain
6:34 AM 37.4 °F 30.8 °F 33.8 °F 87% 29.66 in 5.0 mi NE 9.2 mph - N/A Rain Light Rain
6:55 AM 36.9 °F 30.7 °F 34.0 °F 89% 29.68 in 4.0 mi NNE 8.1 mph - 0.07 in Rain Light Rain
7:55 AM 36.3 °F 28.9 °F 34.2 °F 92% 29.69 in 3.0 mi North 10.4 mph - 0.04 in Fog , Rain Light Rain
8:55 AM 35.8 °F 28.8 °F 33.6 °F 92% 29.66 in 2.0 mi NNE 9.2 mph - 0.16 in Rain Light Rain
9:55 AM 36.0 °F 28.5 °F 34.2 °F 93% 29.63 in 3.0 mi NE 10.4 mph - 0.02 in   Overcast
10:29 AM 35.6 °F 27.5 °F 33.8 °F 93% 29.59 in 2.0 mi ENE 11.5 mph - N/A   Light Drizzle
10:55 AM 36.0 °F 29.6 °F 34.2 °F 93% 29.62 in 2.0 mi ENE 8.1 mph - 0.00 in   Light Drizzle
11:55 AM 36.5 °F 28.7 °F 34.9 °F 94% 29.59 in 2.0 mi ENE 11.5 mph - 0.01 in   Overcast
12:55 PM 36.7 °F 26.9 °F 34.9 °F 93% 29.50 in 4.0 mi ENE 17.3 mph 23.0 mph N/A   Overcast
1:55 PM 37.2 °F 30.0 °F 35.4 °F 93% 29.47 in 3.0 mi ENE 10.4 mph - N/A   Overcast
2:55 PM 37.4 °F - 35.8 °F 94% 29.50 in 5.0 mi Calm Calm - N/A   Overcast
3:12 PM 37.4 °F 33.8 °F 35.6 °F 93% 29.45 in 3.0 mi NE 4.6 mph - N/A Rain Light Rain
3:22 PM 37.4 °F 32.1 °F 35.6 °F 93% 29.44 in 2.0 mi ENE 6.9 mph - N/A Rain Light Rain
3:50 PM 37.4 °F 31.4 °F 35.6 °F 93% 29.40 in 2.0 mi NNE 8.1 mph - N/A Rain , Thunderstorm Light Rain
3:55 PM 36.9 °F 34.3 °F 35.6 °F 95% 29.45 in 2.0 mi East 3.5 mph - 0.04 in Rain , Thunderstorm Light Rain
4:18 PM 37.4 °F 33.8 °F 35.6 °F 93% 29.41 in 2.5 mi North 4.6 mph - N/A Rain Light Rain
4:32 PM 37.4 °F - 37.4 °F 100% 29.41 in 3.0 mi NE 2.3 mph - N/A Rain Light Rain
4:40 PM 37.4 °F 34.9 °F 35.6 °F 93% 29.42 in 2.0 mi East 3.5 mph - N/A Rain Light Rain
4:51 PM 37.4 °F 32.8 °F 37.4 °F 100% 29.39 in 3.0 mi NNE 5.8 mph - N/A Rain Light Rain
4:55 PM 38.5 °F 34.1 °F 37.4 °F 96% 29.42 in 4.0 mi NNE 5.8 mph - 0.13 in Rain Light Rain
5:30 PM 39.2 °F 35.9 °F 37.4 °F 93% 29.40 in 7.0 mi East 4.6 mph - N/A   Overcast
5:55 PM 38.1 °F 34.6 °F 36.9 °F 95% 29.40 in 7.0 mi ENE 4.6 mph - 0.02 in Rain Light Rain
6:14 PM 37.4 °F 33.8 °F 37.4 °F 100% 29.39 in 3.0 mi ENE 4.6 mph - N/A   Overcast
6:43 PM 39.2 °F 37.0 °F 37.4 °F 93% 29.39 in 3.0 mi ESE 3.5 mph - N/A   Overcast
6:55 PM 38.3 °F 33.9 °F 37.2 °F 96% 29.43 in 3.0 mi ESE 5.8 mph - 0.01 in   Overcast
7:55 PM 38.7 °F 35.2 °F 37.9 °F 97% 29.44 in 3.0 mi South 4.6 mph - N/A   Overcast
8:30 PM 39.2 °F 32.5 °F 39.2 °F 100% 29.42 in 3.0 mi WSW 10.4 mph - N/A Rain Light Rain
8:55 PM 40.3 °F 33.4 °F 37.9 °F 91% 29.45 in 7.0 mi WSW 11.5 mph - 0.00 in Rain Light Rain
9:38 PM 39.2 °F 30.8 °F 35.6 °F 87% 29.45 in 7.0 mi WSW 15.0 mph - N/A   Overcast
9:55 PM 37.6 °F 28.8 °F 34.7 °F 89% 29.48 in 7.0 mi WSW 15.0 mph - 0.00 in   Overcast
10:26 PM 35.6 °F 25.5 °F 32.0 °F 87% 29.47 in 10.0 mi WSW 17.3 mph - N/A Rain Light Rain
10:55 PM 35.4 °F 27.3 °F 32.5 °F 89% 29.50 in 10.0 mi WSW 11.5 mph 21.9 mph 0.00 in   Overcast
10:59 PM 35.6 °F 25.5 °F 32.0 °F 87% 29.50 in 10.0 mi WSW 17.3 mph 23.0 mph N/A   Overcast
11:13 PM 35.6 °F 25.2 °F 32.0 °F 87% 29.51 in 10.0 mi WSW 18.4 mph 25.3 mph N/A   Overcast
11:14 PM 35.6 °F 25.5 °F 32.0 °F 87% 29.51 in 10.0 mi WSW 17.3 mph 25.3 mph N/A   Overcast
11:55 PM 34.0 °F 25.0 °F 31.1 °F 89% 29.52 in 10.0 mi SW 12.7 mph - 0.00 in Snow Light Snow